"Period start","avg(HW err(1)/warn(2) (#))","avg(Visibility (m))","avg(Weather code (#))","avg(Precip intensity (mm/h))","min(HW err(1)/warn(2) (#))","max(HW err(1)/warn(2) (#))","std(HW err(1)/warn(2) (#))","med(HW err(1)/warn(2) (#))","min(Visibility (m))","max(Visibility (m))","std(Visibility (m))","med(Visibility (m))","min(Weather code (#))","max(Weather code (#))","std(Weather code (#))","med(Weather code (#))","min(Precip intensity (mm/h))","max(Precip intensity (mm/h))","std(Precip intensity (mm/h))","med(Precip intensity (mm/h))"
2016-08-03 00:00:00,0,49679,0,0.00,0,0,0,0,47281,50000,813,50000,0,0,0,0,0.00,0.00,0.00,0.00
2016-08-03 00:10:00,0,50000,0,0.00,0,0,0,0,50000,50000,0,50000,0,0,0,0,0.00,0.00,0.00,0.00
2016-08-03 00:20:00,0,49671,0,0.00,0,0,0,0,47034,50000,884,50000,0,0,0,0,0.00,0.00,0.00,0.00
2016-08-03 00:30:00,0,49574,0,0.00,0,0,0,0,46084,50000,1166,50000,0,0,0,0,0.00,0.00,0.00,0.00
2016-08-03 00:40:00,0,48204,0,0.00,0,0,0,0,43477,50000,2107,49050,0,0,0,0,0.00,0.00,0.00,0.00
2016-08-03 00:50:00,0,50000,0,0.00,0,0,0,0,50000,50000,0,50000,0,0,0,0,0.00,0.00,0.00,0.00
2016-08-03 01:00:00,0,49977,0,0.00,0,0,0,0,49770,50000,69,50000,0,0,0,0,0.00,0.00,0.00,0.00
2016-08-03 01:10:00,0,50000,0,0.00,0,0,0,0,50000,50000,0,50000,0,0,0,0,0.00,0.00,0.00,0.00
2016-08-03 01:20:00,0,49872,0,0.00,0,0,0,0,48723,50000,383,50000,0,0,0,0,0.00,0.00,0.00,0.00
2016-08-03 01:30:00,0,49948,0,0.00,0,0,0,0,49485,50000,154,50000,0,0,0,0,0.00,0.00,0.00,0.00
2016-08-03 01:40:00,0,49070,6,0.01,0,0,0,0,40704,50000,2789,50000,0,61,18,0,0.00,0.15,0.05,0.00
2016-08-03 01:50:00,0,47581,55,0.09,0,0,0,0,40361,50000,3167,48681,0,61,18,61,0.00,0.35,0.11,0.05
2016-08-03 02:00:00,0,49953,0,0.00,0,0,0,0,49533,50000,140,50000,0,0,0,0,0.00,0.00,0.00,0.00
2016-08-03 02:10:00,0,48451,0,0.00,0,0,0,0,43610,50000,2385,50000,0,0,0,0,0.00,0.00,0.00,0.00
2016-08-03 02:20:00,0,50000,0,0.00,0,0,0,0,50000,50000,0,50000,0,0,0,0,0.00,0.00,0.00,0.00
2016-08-03 02:30:00,0,49885,0,0.00,0,0,0,0,49190,50000,253,50000,0,0,0,0,0.00,0.00,0.00,0.00
2016-08-03 02:40:00,0,49702,0,0.00,0,0,0,0,47021,50000,894,50000,0,0,0,0,0.00,0.00,0.00,0.00
2016-08-03 02:50:00,0,49868,0,0.00,0,0,0,0,49291,50000,265,50000,0,0,0,0,0.00,0.00,0.00,0.00
2016-08-03 03:00:00,0,50000,0,0.00,0,0,0,0,50000,50000,0,50000,0,0,0,0,0.00,0.00,0.00,0.00
2016-08-03 03:10:00,0,49822,0,0.00,0,0,0,0,48223,50000,533,50000,0,0,0,0,0.00,0.00,0.00,0.00
2016-08-03 03:20:00,0,49940,0,0.00,0,0,0,0,49400,50000,180,50000,0,0,0,0,0.00,0.00,0.00,0.00
2016-08-03 03:30:00,0,49951,0,0.00,0,0,0,0,49506,50000,148,50000,0,0,0,0,0.00,0.00,0.00,0.00
2016-08-03 03:40:00,0,50000,0,0.00,0,0,0,0,50000,50000,0,50000,0,0,0,0,0.00,0.00,0.00,0.00
2016-08-03 03:50:00,0,41743,4,0.07,0,0,0,0,18776,50000,12781,50000,0,41,12,0,0.00,0.75,0.23,0.00
2016-08-03 04:00:00,0,12609,56,2.40,0,0,0,0,9746,18819,2716,11474,41,61,6,61,0.55,3.65,0.83,2.45
2016-08-03 04:10:00,0,22138,61,1.14,0,2,1,0,13516,26809,4136,22458,61,61,0,61,0.10,3.80,0.98,0.92
2016-08-03 04:20:00,0,40677,12,0.01,0,2,1,0,21361,50000,10447,44525,0,61,24,0,0.00,0.05,0.02,0.00
2016-08-03 04:30:00,0,48691,0,0.00,0,0,0,0,41128,50000,2662,50000,0,0,0,0,0.00,0.00,0.00,0.00
2016-08-03 04:40:00,0,47473,0,0.00,0,0,0,0,34685,50000,4988,50000,0,0,0,0,0.00,0.00,0.00,0.00
2016-08-03 04:50:00,0,45864,0,0.00,0,0,0,0,35037,50000,5657,49140,0,0,0,0,0.00,0.00,0.00,0.00
2016-08-03 05:00:00,0,48535,0,0.00,0,0,0,0,43528,50000,1895,49345,0,0,0,0,0.00,0.00,0.00,0.00
2016-08-03 05:10:00,0,47628,0,0.00,0,0,0,0,41247,50000,2701,48110,0,0,0,0,0.00,0.00,0.00,0.00
2016-08-03 05:20:00,0,48495,0,0.00,0,0,0,0,44021,50000,2161,50000,0,0,0,0,0.00,0.00,0.00,0.00
2016-08-03 05:30:00,0,50000,0,0.00,0,0,0,0,50000,50000,0,50000,0,0,0,0,0.00,0.00,0.00,0.00
2016-08-03 05:40:00,0,48746,0,0.00,0,0,0,0,43497,50000,2510,50000,0,0,0,0,0.00,0.00,0.00,0.00
2016-08-03 05:50:00,0,49950,0,0.00,0,0,0,0,49501,50000,150,50000,0,0,0,0,0.00,0.00,0.00,0.00
2016-08-03 06:00:00,0,50000,0,0.00,0,0,0,0,50000,50000,0,50000,0,0,0,0,0.00,0.00,0.00,0.00
2016-08-03 06:10:00,0,49973,0,0.00,0,0,0,0,49730,50000,81,50000,0,0,0,0,0.00,0.00,0.00,0.00
2016-08-03 06:20:00,0,49472,0,0.00,0,0,0,0,45348,50000,1387,50000,0,0,0,0,0.00,0.00,0.00,0.00
2016-08-03 06:30:00,0,49701,0,0.00,0,0,0,0,48648,50000,512,50000,0,0,0,0,0.00,0.00,0.00,0.00
2016-08-03 06:40:00,0,48943,0,0.00,0,0,0,0,44094,50000,1909,50000,0,0,0,0,0.00,0.00,0.00,0.00
2016-08-03 06:50:00,0,49979,0,0.00,0,0,0,0,49823,50000,53,50000,0,0,0,0,0.00,0.00,0.00,0.00
2016-08-03 07:00:00,0,49997,0,0.00,0,0,0,0,49967,50000,10,50000,0,0,0,0,0.00,0.00,0.00,0.00
2016-08-03 07:10:00,0,50000,0,0.00,0,0,0,0,50000,50000,0,50000,0,0,0,0,0.00,0.00,0.00,0.00
2016-08-03 07:20:00,0,46906,24,0.17,0,0,0,0,31692,50000,5804,49780,0,61,30,0,0.00,0.75,0.27,0.00
2016-08-03 07:30:00,0,47769,43,0.07,0,0,0,0,43454,50000,2457,48506,0,61,28,61,0.00,0.30,0.09,0.03
2016-08-03 07:40:00,0,49490,0,0.00,0,0,0,0,46372,50000,1128,50000,0,0,0,0,0.00,0.00,0.00,0.00
2016-08-03 07:50:00,0,49836,0,0.00,0,0,0,0,48359,50000,492,50000,0,0,0,0,0.00,0.00,0.00,0.00
2016-08-03 08:00:00,0,49538,0,0.00,0,0,0,0,46121,50000,1148,50000,0,0,0,0,0.00,0.00,0.00,0.00
2016-08-03 08:10:00,0,49208,0,0.00,0,0,0,0,46082,50000,1358,50000,0,0,0,0,0.00,0.00,0.00,0.00
2016-08-03 08:20:00,0,49184,0,0.00,0,0,0,0,46547,50000,1351,50000,0,0,0,0,0.00,0.00,0.00,0.00
2016-08-03 08:30:00,0,49913,30,0.05,0,0,0,0,49368,50000,195,50000,0,51,20,41,0.00,0.15,0.05,0.05
2016-08-03 08:40:00,0,48831,51,0.06,0,0,0,0,42845,50000,2320,50000,51,51,0,51,0.00,0.10,0.03,0.05
2016-08-03 08:50:00,0,50000,34,0.03,0,0,0,0,50000,50000,0,50000,0,51,22,46,0.00,0.10,0.04,0.00
2016-08-03 09:00:00,0,48931,0,0.00,0,0,0,0,43554,50000,2076,50000,0,0,0,0,0.00,0.00,0.00,0.00
2016-08-03 09:10:00,0,50000,0,0.00,0,0,0,0,50000,50000,0,50000,0,0,0,0,0.00,0.00,0.00,0.00
2016-08-03 09:20:00,0,49818,0,0.00,0,0,0,0,48951,50000,351,50000,0,0,0,0,0.00,0.00,0.00,0.00
2016-08-03 09:30:00,0,49768,0,0.00,0,0,0,0,47764,50000,668,50000,0,0,0,0,0.00,0.00,0.00,0.00
2016-08-03 09:40:00,0,46849,0,0.00,0,0,0,0,36049,50000,4726,50000,0,0,0,0,0.00,0.00,0.00,0.00
2016-08-03 09:50:00,0,49875,0,0.00,0,0,0,0,48748,50000,376,50000,0,0,0,0,0.00,0.00,0.00,0.00
2016-08-03 10:00:00,0,50000,0,0.00,0,0,0,0,50000,50000,0,50000,0,0,0,0,0.00,0.00,0.00,0.00
2016-08-03 10:10:00,0,49614,0,0.00,0,0,0,0,47038,50000,878,50000,0,0,0,0,0.00,0.00,0.00,0.00
2016-08-03 10:20:00,0,49986,0,0.00,0,0,0,0,49863,50000,41,50000,0,0,0,0,0.00,0.00,0.00,0.00
2016-08-03 10:30:00,0,50000,0,0.00,0,0,0,0,50000,50000,0,50000,0,0,0,0,0.00,0.00,0.00,0.00
2016-08-03 10:40:00,0,50000,0,0.00,0,0,0,0,50000,50000,0,50000,0,0,0,0,0.00,0.00,0.00,0.00
2016-08-03 10:50:00,0,49800,0,0.00,0,0,0,0,48590,50000,426,50000,0,0,0,0,0.00,0.00,0.00,0.00
2016-08-03 11:00:00,0,39408,54,0.68,0,0,0,0,29870,50000,7103,37706,52,61,4,52,0.00,1.00,0.31,0.78
2016-08-03 11:10:00,0,39929,40,0.19,0,0,0,0,28732,48908,6514,41781,0,52,20,51,0.00,0.60,0.19,0.10
2016-08-03 11:20:00,0,50000,0,0.00,0,0,0,0,50000,50000,0,50000,0,0,0,0,0.00,0.00,0.00,0.00
2016-08-03 11:30:00,0,50000,0,0.00,0,0,0,0,50000,50000,0,50000,0,0,0,0,0.00,0.00,0.00,0.00
2016-08-03 11:40:00,0,49611,38,0.33,0,0,0,0,48054,50000,777,50000,0,61,25,51,0.00,1.10,0.33,0.28
2016-08-03 11:50:00,0,49004,51,0.36,0,0,0,0,46062,50000,1505,50000,51,52,0,51,0.05,0.75,0.20,0.40
2016-08-03 12:00:00,0,49084,51,0.31,0,0,0,0,42617,50000,2192,50000,51,51,0,51,0.05,0.65,0.17,0.28
2016-08-03 12:10:00,0,49937,59,0.07,0,0,0,0,49372,50000,188,50000,51,61,4,61,0.00,0.15,0.05,0.08
2016-08-03 12:20:00,0,50000,18,0.01,0,0,0,0,50000,50000,0,50000,0,61,28,0,0.00,0.05,0.02,0.00
2016-08-03 12:30:00,0,50000,0,0.00,0,0,0,0,50000,50000,0,50000,0,0,0,0,0.00,0.00,0.00,0.00
2016-08-03 12:40:00,0,50000,0,0.00,0,0,0,0,50000,50000,0,50000,0,0,0,0,0.00,0.00,0.00,0.00
2016-08-03 12:50:00,0,50000,0,0.00,0,0,0,0,50000,50000,0,50000,0,0,0,0,0.00,0.00,0.00,0.00
2016-08-03 13:00:00,0,50000,0,0.00,0,0,0,0,50000,50000,0,50000,0,0,0,0,0.00,0.00,0.00,0.00
2016-08-03 13:10:00,0,50000,0,0.00,0,0,0,0,50000,50000,0,50000,0,0,0,0,0.00,0.00,0.00,0.00
2016-08-03 13:20:00,0,50000,0,0.00,0,0,0,0,50000,50000,0,50000,0,0,0,0,0.00,0.00,0.00,0.00
2016-08-03 13:30:00,0,50000,0,0.00,0,0,0,0,50000,50000,0,50000,0,0,0,0,0.00,0.00,0.00,0.00
2016-08-03 13:40:00,0,50000,0,0.00,0,0,0,0,50000,50000,0,50000,0,0,0,0,0.00,0.00,0.00,0.00
2016-08-03 13:50:00,0,50000,0,0.00,0,0,0,0,50000,50000,0,50000,0,0,0,0,0.00,0.00,0.00,0.00
2016-08-03 14:00:00,0,50000,0,0.00,0,0,0,0,50000,50000,0,50000,0,0,0,0,0.00,0.00,0.00,0.00
2016-08-03 14:10:00,0,50000,0,0.00,0,0,0,0,50000,50000,0,50000,0,0,0,0,0.00,0.00,0.00,0.00
2016-08-03 14:20:00,0,50000,0,0.00,0,0,0,0,50000,50000,0,50000,0,0,0,0,0.00,0.00,0.00,0.00
2016-08-03 14:30:00,0,50000,0,0.00,0,0,0,0,50000,50000,0,50000,0,0,0,0,0.00,0.00,0.00,0.00
2016-08-03 14:40:00,0,50000,0,0.00,0,0,0,0,50000,50000,0,50000,0,0,0,0,0.00,0.00,0.00,0.00
2016-08-03 14:50:00,0,50000,0,0.00,0,0,0,0,50000,50000,0,50000,0,0,0,0,0.00,0.00,0.00,0.00
2016-08-03 15:00:00,0,50000,0,0.00,0,0,0,0,50000,50000,0,50000,0,0,0,0,0.00,0.00,0.00,0.00
2016-08-03 15:10:00,0,50000,0,0.00,0,0,0,0,50000,50000,0,50000,0,0,0,0,0.00,0.00,0.00,0.00
2016-08-03 15:20:00,0,50000,0,0.00,0,0,0,0,50000,50000,0,50000,0,0,0,0,0.00,0.00,0.00,0.00
2016-08-03 15:30:00,0,50000,0,0.00,0,0,0,0,50000,50000,0,50000,0,0,0,0,0.00,0.00,0.00,0.00
2016-08-03 15:40:00,0,50000,0,0.00,0,0,0,0,50000,50000,0,50000,0,0,0,0,0.00,0.00,0.00,0.00
2016-08-03 15:50:00,0,50000,0,0.00,0,0,0,0,50000,50000,0,50000,0,0,0,0,0.00,0.00,0.00,0.00
2016-08-03 16:00:00,0,50000,0,0.00,0,0,0,0,50000,50000,0,50000,0,0,0,0,0.00,0.00,0.00,0.00
2016-08-03 16:10:00,0,50000,0,0.00,0,0,0,0,50000,50000,0,50000,0,0,0,0,0.00,0.00,0.00,0.00
2016-08-03 16:20:00,0,50000,0,0.00,0,0,0,0,50000,50000,0,50000,0,0,0,0,0.00,0.00,0.00,0.00
2016-08-03 16:30:00,0,50000,0,0.00,0,0,0,0,50000,50000,0,50000,0,0,0,0,0.00,0.00,0.00,0.00
2016-08-03 16:40:00,0,50000,0,0.00,0,0,0,0,50000,50000,0,50000,0,0,0,0,0.00,0.00,0.00,0.00
2016-08-03 16:50:00,0,50000,0,0.00,0,0,0,0,50000,50000,0,50000,0,0,0,0,0.00,0.00,0.00,0.00
2016-08-03 17:00:00,0,44288,0,0.00,0,0,0,0,33186,50000,6204,45962,0,0,0,0,0.00,0.00,0.00,0.00
2016-08-03 17:10:00,0,50000,0,0.00,0,0,0,0,50000,50000,0,50000,0,0,0,0,0.00,0.00,0.00,0.00
2016-08-03 17:20:00,0,50000,0,0.00,0,0,0,0,50000,50000,0,50000,0,0,0,0,0.00,0.00,0.00,0.00
2016-08-03 17:30:00,0,50000,0,0.00,0,0,0,0,50000,50000,0,50000,0,0,0,0,0.00,0.00,0.00,0.00
2016-08-03 17:40:00,0,50000,0,0.00,0,0,0,0,50000,50000,0,50000,0,0,0,0,0.00,0.00,0.00,0.00
2016-08-03 17:50:00,0,50000,0,0.00,0,0,0,0,50000,50000,0,50000,0,0,0,0,0.00,0.00,0.00,0.00
2016-08-03 18:00:00,0,50000,0,0.00,0,0,0,0,50000,50000,0,50000,0,0,0,0,0.00,0.00,0.00,0.00
2016-08-03 18:10:00,0,50000,0,0.00,0,0,0,0,50000,50000,0,50000,0,0,0,0,0.00,0.00,0.00,0.00
2016-08-03 18:20:00,0,50000,0,0.00,0,0,0,0,50000,50000,0,50000,0,0,0,0,0.00,0.00,0.00,0.00
2016-08-03 18:30:00,0,50000,0,0.00,0,0,0,0,50000,50000,0,50000,0,0,0,0,0.00,0.00,0.00,0.00
2016-08-03 18:40:00,0,50000,0,0.00,0,0,0,0,50000,50000,0,50000,0,0,0,0,0.00,0.00,0.00,0.00
2016-08-03 18:50:00,0,50000,0,0.00,0,0,0,0,50000,50000,0,50000,0,0,0,0,0.00,0.00,0.00,0.00
2016-08-03 19:00:00,0,50000,0,0.00,0,0,0,0,50000,50000,0,50000,0,0,0,0,0.00,0.00,0.00,0.00
2016-08-03 19:10:00,0,50000,0,0.00,0,0,0,0,50000,50000,0,50000,0,0,0,0,0.00,0.00,0.00,0.00
2016-08-03 19:20:00,0,49889,0,0.00,0,0,0,0,49097,50000,271,50000,0,0,0,0,0.00,0.00,0.00,0.00
2016-08-03 19:30:00,0,50000,0,0.00,0,0,0,0,50000,50000,0,50000,0,0,0,0,0.00,0.00,0.00,0.00
2016-08-03 19:40:00,0,50000,0,0.00,0,0,0,0,50000,50000,0,50000,0,0,0,0,0.00,0.00,0.00,0.00
2016-08-03 19:50:00,0,50000,0,0.00,0,0,0,0,50000,50000,0,50000,0,0,0,0,0.00,0.00,0.00,0.00
2016-08-03 20:00:00,0,50000,0,0.00,0,0,0,0,50000,50000,0,50000,0,0,0,0,0.00,0.00,0.00,0.00
2016-08-03 20:10:00,0,50000,0,0.00,0,0,0,0,50000,50000,0,50000,0,0,0,0,0.00,0.00,0.00,0.00
2016-08-03 20:20:00,0,50000,0,0.00,0,0,0,0,50000,50000,0,50000,0,0,0,0,0.00,0.00,0.00,0.00
2016-08-03 20:30:00,0,50000,0,0.00,0,0,0,0,50000,50000,0,50000,0,0,0,0,0.00,0.00,0.00,0.00
2016-08-03 20:40:00,0,50000,0,0.00,0,0,0,0,50000,50000,0,50000,0,0,0,0,0.00,0.00,0.00,0.00
2016-08-03 20:50:00,0,50000,0,0.00,0,0,0,0,50000,50000,0,50000,0,0,0,0,0.00,0.00,0.00,0.00
2016-08-03 21:00:00,0,49782,0,0.00,0,0,0,0,47817,50000,655,50000,0,0,0,0,0.00,0.00,0.00,0.00
2016-08-03 21:10:00,0,49766,0,0.00,0,0,0,0,48172,50000,553,50000,0,0,0,0,0.00,0.00,0.00,0.00
2016-08-03 21:20:00,1,49820,0,0.00,0,2,1,1,48197,50000,541,50000,0,0,0,0,0.00,0.00,0.00,0.00
2016-08-03 21:30:00,2,49935,0,0.00,2,2,0,2,49351,50000,195,50000,0,0,0,0,0.00,0.00,0.00,0.00
2016-08-03 21:40:00,2,49809,0,0.00,0,2,1,2,48847,50000,392,50000,0,0,0,0,0.00,0.00,0.00,0.00
2016-08-03 21:50:00,2,49183,0,0.00,2,2,0,2,43247,50000,2023,50000,0,0,0,0,0.00,0.00,0.00,0.00
2016-08-03 22:00:00,2,49518,0,0.00,0,2,1,2,45178,50000,1447,50000,0,0,0,0,0.00,0.00,0.00,0.00
2016-08-03 22:10:00,2,50000,0,0.00,2,2,0,2,50000,50000,0,50000,0,0,0,0,0.00,0.00,0.00,0.00
2016-08-03 22:20:00,2,48780,0,0.00,0,2,1,2,42604,50000,2279,50000,0,0,0,0,0.00,0.00,0.00,0.00
2016-08-03 22:30:00,1,49920,0,0.00,0,2,1,1,49200,50000,240,50000,0,0,0,0,0.00,0.00,0.00,0.00
2016-08-03 22:40:00,2,49942,0,0.00,2,2,0,2,49424,50000,173,50000,0,0,0,0,0.00,0.00,0.00,0.00
2016-08-03 22:50:00,2,49130,0,0.00,2,2,0,2,46488,50000,1178,49930,0,0,0,0,0.00,0.00,0.00,0.00
2016-08-03 23:00:00,2,50000,0,0.00,2,2,0,2,50000,50000,0,50000,0,0,0,0,0.00,0.00,0.00,0.00
2016-08-03 23:10:00,2,49965,0,0.00,2,2,0,2,49654,50000,104,50000,0,0,0,0,0.00,0.00,0.00,0.00
2016-08-03 23:20:00,2,48591,0,0.00,2,2,0,2,42267,50000,2357,50000,0,0,0,0,0.00,0.00,0.00,0.00
2016-08-03 23:30:00,2,45587,0,0.00,2,2,0,2,35982,50000,5503,48729,0,0,0,0,0.00,0.00,0.00,0.00
2016-08-03 23:40:00,1,50000,0,0.00,0,2,1,2,50000,50000,0,50000,0,0,0,0,0.00,0.00,0.00,0.00
2016-08-03 23:50:00,2,49186,0,0.00,2,2,0,2,42292,50000,2300,50000,0,0,0,0,0.00,0.00,0.00,0.00
